Tucson Davis Monthan, AZ

3:52 PM MST on April 30, 2017 (GMT -0700)
Davis-Monthan Air Force Base

Weather History for KDMA - February, 2014

Change the Weather History Date:

Sunday, February 16, 2014

  Actual Average Record
Temperature  
Mean Temperature 68 °F -  
Max Temperature 81 °F 68 °F 83 °F (2016)
Min Temperature 54 °F 41 °F 23 °F (1990)
Cooling Degree Days 2    
Growing Degree Days 18 (Base 50)    
Moisture  
Dew Point 20 °F    
Average Humidity 18    
Maximum Humidity 30    
Minimum Humidity 8    
Precipitation  
Precipitation 0.00 in - - ()
Sea Level Pressure  
Sea Level Pressure 29.96 in    
Wind  
Wind Speed 7 mph (SE)    
Max Wind Speed 12 mph    
Max Gust Speed -    
Visibility 10 miles    
Events      
Averages and records for this station are not official NWS values.
T = Trace of Precipitation, MM = Missing Value Source: NWS Daily Summary

Daily Weather History Graph

Daily Weather History Graph

Search for Another Location

Airport or City:

Trip Planner

Search our weather history database for the weather conditions in past years. The results will help you decide how hot, cold, wet, or windy it might be!

Date:

Astronomy

Feb. 16, 2014 Rise Set
Actual Time 7:04 AM MST 6:10 PM MST
Civil Twilight 6:39 AM MST 6:35 PM MST
Nautical Twilight 6:11 AM MST 7:04 PM MST
Astronomical Twilight 5:42 AM MST 7:32 PM MST
Moon 8:01 PM MST (2/16) 7:44 AM MST (2/16)
Length of Visible Light 11h 55m
Length of Day
11h 05m
Full, 97% of the Moon is Illuminated
Feb 16
Full
Feb 22
Last Quarter
Mar 1
New
Mar 8
First Quarter
Mar 16
Full

Hourly Weather History & Observations

Time (MST) Temp. Dew Point Humidity Pressure Visibility Wind Dir Wind Speed Gust Speed Precip Events Conditions
12:58 AM 56.5 °F 23.9 °F 28% 29.96 in 10.0 mi SE 8.1 mph - N/A   Clear
1:58 AM 55.4 °F 23.9 °F 30% 29.94 in 10.0 mi SE 10.4 mph - N/A   Clear
2:58 AM 54.7 °F 23.2 °F 29% 29.95 in 10.0 mi SSE 5.8 mph - N/A   Clear
3:58 AM 55.6 °F 22.5 °F 28% 29.93 in 10.0 mi ESE 4.6 mph - N/A   Clear
4:58 AM 57.2 °F 21.6 °F 25% 29.92 in 10.0 mi ESE 11.5 mph - N/A   Clear
5:58 AM 55.2 °F 21.2 °F 27% 29.94 in 10.0 mi SE 10.4 mph - N/A   Clear
6:58 AM 56.7 °F 20.3 °F 24% 29.96 in 10.0 mi SSE 8.1 mph - N/A   Clear
7:58 AM 56.3 °F 21.0 °F 25% 29.98 in 10.0 mi ESE 3.5 mph - N/A   Clear
8:58 AM 62.4 °F 22.3 °F 22% 30.00 in 10.0 mi SE 8.1 mph - N/A   Clear
9:58 AM 69.6 °F 23.4 °F 18% 30.01 in 10.0 mi East 6.9 mph - N/A   Clear
10:58 AM 75.4 °F 23.5 °F 14% 30.00 in 10.0 mi ENE 1.2 mph - N/A   Clear
11:58 AM 78.1 °F 22.3 °F 13% 29.98 in 10.0 mi Calm Calm - N/A   Clear
12:58 PM 79.7 °F 18.5 °F 10% 29.96 in 10.0 mi NNW 3.5 mph - N/A   Clear
1:58 PM 81.0 °F 18.0 °F 10% 29.93 in 10.0 mi Variable 3.5 mph - N/A   Clear
2:58 PM 81.7 °F 18.7 °F 10% 29.91 in 10.0 mi NW 10.4 mph - N/A   Clear
3:58 PM 81.1 °F 14.9 °F 8% 29.90 in 10.0 mi North 6.9 mph - N/A   Clear
4:58 PM 81.0 °F 16.0 °F 9% 29.91 in 10.0 mi NNW 10.4 mph - N/A   Clear
5:58 PM 76.8 °F 19.0 °F 11% 29.94 in 10.0 mi NW 10.4 mph - N/A   Clear
6:58 PM 73.9 °F 16.7 °F 11% 29.96 in 10.0 mi NW 5.8 mph - N/A   Scattered Clouds
7:58 PM 72.1 °F 17.2 °F 12% 29.96 in 10.0 mi Calm Calm - N/A   Scattered Clouds
8:58 PM 69.4 °F 20.1 °F 15% 29.99 in 10.0 mi West 9.2 mph - N/A   Partly Cloudy
9:58 PM 68.0 °F 20.5 °F 16% 29.98 in 10.0 mi WSW 6.9 mph - N/A   Clear
10:58 PM 63.1 °F 21.7 °F 21% 29.99 in 10.0 mi SSW 5.8 mph - N/A   Clear
11:58 PM 57.9 °F 21.6 °F 25% 30.00 in 10.0 mi SE 9.2 mph - N/A   Clear